Wahoo, NE

5:20 AM CDT on October 19, 2017 (GMT -0500)
Wahoo Municipal

Weather History for KAHQ - September, 2013

Change the Weather History Date:

Monday, September 30, 2013

  Actual Average Record
Temperature  
Mean Temperature 66 °F -  
Max Temperature 84 °F 75 °F 89 °F (1981)
Min Temperature 48 °F 47 °F 31 °F (1972)
Cooling Degree Days 1    
Growing Degree Days 16 (Base 50)    
Moisture  
Dew Point 47 °F    
Average Humidity 61    
Maximum Humidity 90    
Minimum Humidity 26    
Precipitation  
Precipitation 0.00 in - - ()
Sea Level Pressure  
Sea Level Pressure 29.78 in    
Wind  
Wind Speed 10 mph (South)    
Max Wind Speed 20 mph    
Max Gust Speed 25 mph    
Visibility 10 miles    
Events      
Averages and records for this station are not official NWS values.
T = Trace of Precipitation, MM = Missing Value Source: NWS Daily Summary

Daily Weather History Graph

Daily Weather History Graph

Search for Another Location

Airport or City:

Trip Planner

Search our weather history database for the weather conditions in past years. The results will help you decide how hot, cold, wet, or windy it might be!

Date:

Astronomy

Sep. 30, 2013 Rise Set
Actual Time 7:22 AM CDT 7:09 PM CDT
Civil Twilight 6:54 AM CDT 7:36 PM CDT
Nautical Twilight 6:22 AM CDT 8:08 PM CDT
Astronomical Twilight 5:50 AM CDT 8:41 PM CDT
Moon 2:58 AM CDT (9/30) 4:42 PM CDT (9/30)
Length of Visible Light 12h 42m
Length of Day
11h 47m
Waning Crescent, 19% of the Moon is Illuminated
Sep 30
Waning Crescent
Oct 4
New
Oct 11
First Quarter
Oct 18
Full
Oct 26
Last Quarter

Hourly Weather History & Observations

Time (CDT) Temp. Dew Point Humidity Pressure Visibility Wind Dir Wind Speed Gust Speed Precip Events Conditions
12:15 AM 53.6 °F 45.9 °F 75% 29.87 in 10.0 mi SSE 9.2 mph - N/A   Clear
12:35 AM 53.4 °F 45.5 °F 75% 29.88 in 10.0 mi SSE 5.8 mph - N/A   Clear
12:55 AM 50.9 °F 44.8 °F 80% 29.88 in 10.0 mi South 5.8 mph - N/A   Clear
1:15 AM 51.4 °F 45.0 °F 79% 29.87 in 10.0 mi SSE 8.1 mph - N/A   Clear
1:35 AM 50.9 °F 44.8 °F 80% 29.87 in 10.0 mi South 5.8 mph - N/A   Clear
1:55 AM 49.6 °F 44.8 °F 83% 29.87 in 10.0 mi South 6.9 mph - N/A   Clear
2:15 AM 49.6 °F 44.8 °F 83% 29.87 in 10.0 mi South 6.9 mph - N/A   Clear
2:35 AM 49.3 °F 44.8 °F 84% 29.87 in 10.0 mi South 8.1 mph - N/A   Clear
2:55 AM 50.0 °F 45.5 °F 85% 29.85 in 10.0 mi South 8.1 mph - N/A   Clear
3:15 AM 51.1 °F 45.9 °F 82% 29.84 in 10.0 mi South 9.2 mph - N/A   Clear
3:35 AM 51.3 °F 46.2 °F 83% 29.83 in 10.0 mi South 9.2 mph - N/A   Clear
3:55 AM 51.8 °F 46.8 °F 83% 29.84 in 10.0 mi SSW 3.5 mph - N/A   Clear
4:15 AM 51.6 °F 46.9 °F 84% 29.84 in 10.0 mi South 6.9 mph - N/A   Clear
4:35 AM 52.0 °F 46.9 °F 83% 29.83 in 10.0 mi South 6.9 mph - N/A   Clear
4:55 AM 51.8 °F 47.3 °F 85% 29.83 in 10.0 mi South 8.1 mph - N/A   Clear
5:15 AM 51.1 °F 47.1 °F 86% 29.83 in 10.0 mi South 6.9 mph - N/A   Clear
5:35 AM 50.7 °F 46.8 °F 86% 29.83 in 10.0 mi South 4.6 mph - N/A   Clear
5:55 AM 50.0 °F 46.6 °F 88% 29.83 in 10.0 mi SSE 6.9 mph - N/A   Clear
6:15 AM 49.1 °F 46.0 °F 89% 29.83 in 10.0 mi SSE 5.8 mph - N/A   Clear
6:35 AM 48.4 °F 45.7 °F 90% 29.82 in 10.0 mi SSE 4.6 mph - N/A   Clear
6:55 AM 49.5 °F 46.6 °F 90% 29.82 in 10.0 mi South 4.6 mph - N/A   Clear
7:15 AM 49.6 °F 46.6 °F 89% 29.82 in 10.0 mi South 5.8 mph - N/A   Clear
7:35 AM 49.3 °F 46.4 °F 90% 29.82 in 10.0 mi South 8.1 mph - N/A   Clear
7:55 AM 50.2 °F 46.9 °F 89% 29.82 in 10.0 mi South 6.9 mph - N/A   Clear
8:15 AM 52.0 °F 48.2 °F 87% 29.82 in 10.0 mi South 6.9 mph - N/A   Clear
8:35 AM 55.6 °F 49.6 °F 80% 29.81 in 10.0 mi South 8.1 mph - N/A   Clear
8:55 AM 57.9 °F 49.5 °F 73% 29.81 in 10.0 mi South 11.5 mph - N/A   Clear
9:15 AM 59.2 °F 48.9 °F 69% 29.80 in 10.0 mi SSW 15.0 mph - N/A   Clear
9:35 AM 60.4 °F 48.9 °F 66% 29.80 in 10.0 mi SSW 15.0 mph 20.7 mph N/A   Clear
9:55 AM 61.9 °F 48.4 °F 61% 29.80 in 10.0 mi SSW 15.0 mph 21.9 mph N/A   Clear
10:15 AM 64.4 °F 48.4 °F 56% 29.80 in 10.0 mi SSW 17.3 mph - N/A   Clear
10:35 AM 66.7 °F 48.2 °F 51% 29.80 in 10.0 mi SSW 18.4 mph 25.3 mph N/A   Clear
10:55 AM 68.4 °F 47.7 °F 48% 29.79 in 10.0 mi SSW 17.3 mph - N/A   Clear
11:15 AM 70.3 °F 46.8 °F 43% 29.79 in 10.0 mi SSW 16.1 mph 24.2 mph N/A   Clear
11:35 AM 71.4 °F 46.9 °F 42% 29.79 in 10.0 mi SSW 16.1 mph 24.2 mph N/A   Clear
11:55 AM 72.5 °F 46.0 °F 39% 29.78 in 10.0 mi SSW 18.4 mph 23.0 mph N/A   Clear
12:15 PM 74.1 °F 46.8 °F 38% 29.77 in 10.0 mi SSW 17.3 mph - N/A   Clear
12:35 PM 75.6 °F 46.9 °F 36% 29.77 in 10.0 mi SSW 16.1 mph 19.6 mph N/A   Clear
12:55 PM 77.0 °F 46.9 °F 34% 29.77 in 10.0 mi SSW 18.4 mph 25.3 mph N/A   Clear
1:15 PM 79.3 °F 46.2 °F 31% 29.76 in 10.0 mi SSW 15.0 mph 21.9 mph N/A   Clear
1:35 PM 79.3 °F 45.9 °F 31% 29.76 in 10.0 mi South 19.6 mph - N/A   Clear
1:55 PM 80.1 °F 45.9 °F 30% 29.75 in 10.0 mi SSW 12.7 mph 24.2 mph N/A   Clear
2:15 PM 81.9 °F 45.3 °F 28% 29.74 in 10.0 mi SSW 17.3 mph - N/A   Clear
2:35 PM 82.0 °F 45.3 °F 27% 29.73 in 10.0 mi South 18.4 mph 24.2 mph N/A   Clear
2:55 PM 83.1 °F 45.3 °F 26% 29.73 in 10.0 mi SSW 17.3 mph 21.9 mph N/A   Clear
3:15 PM 83.7 °F 45.3 °F 26% 29.72 in 10.0 mi South 18.4 mph 23.0 mph N/A   Clear
3:35 PM 83.7 °F 45.3 °F 26% 29.72 in 10.0 mi South 19.6 mph 24.2 mph N/A   Clear
3:55 PM 84.0 °F 45.7 °F 26% 29.71 in 10.0 mi South 18.4 mph 25.3 mph N/A   Clear
4:15 PM 83.3 °F 45.0 °F 26% 29.71 in 10.0 mi South 19.6 mph - N/A   Clear
4:35 PM 83.3 °F 45.1 °F 26% 29.70 in 10.0 mi South 18.4 mph 24.2 mph N/A   Clear
4:55 PM 82.4 °F 45.1 °F 27% 29.70 in 10.0 mi South 18.4 mph 24.2 mph N/A   Clear
5:15 PM 81.9 °F 45.9 °F 28% 29.70 in 10.0 mi South 18.4 mph 23.0 mph N/A   Clear
5:35 PM 80.8 °F 46.2 °F 30% 29.70 in 10.0 mi South 13.8 mph 21.9 mph N/A   Clear
5:55 PM 80.2 °F 47.3 °F 31% 29.70 in 10.0 mi South 12.7 mph - N/A   Clear
6:15 PM 79.3 °F 47.5 °F 33% 29.71 in 10.0 mi South 12.7 mph 19.6 mph N/A   Clear
6:35 PM 78.4 °F 47.3 °F 33% 29.71 in 10.0 mi South 13.8 mph 19.6 mph N/A   Clear
6:55 PM 77.0 °F 47.8 °F 36% 29.71 in 10.0 mi South 11.5 mph - N/A   Clear
7:15 PM 73.6 °F 49.1 °F 42% 29.71 in 10.0 mi South 11.5 mph - N/A   Clear
7:35 PM 72.0 °F 49.5 °F 45% 29.71 in 10.0 mi South 9.2 mph - N/A   Clear
7:55 PM 67.1 °F 50.5 °F 55% 29.71 in 10.0 mi SSE 9.2 mph - N/A   Clear
8:15 PM 65.7 °F 50.9 °F 59% 29.72 in 10.0 mi SSE 8.1 mph - N/A   Clear
8:35 PM 64.8 °F 51.3 °F 62% 29.73 in 10.0 mi SSE 8.1 mph - N/A   Clear
8:55 PM 63.3 °F 51.3 °F 65% 29.73 in 10.0 mi South 6.9 mph - N/A   Clear
9:15 PM 60.6 °F 51.4 °F 72% 29.74 in 10.0 mi SSE 4.6 mph - N/A   Clear
9:35 PM 61.9 °F 52.2 °F 70% 29.74 in 10.0 mi SSE 9.2 mph - N/A   Clear
9:55 PM 61.2 °F 52.3 °F 73% 29.74 in 10.0 mi SSE 10.4 mph - N/A   Clear
10:15 PM 60.4 °F 52.2 °F 74% 29.75 in 10.0 mi SSE 6.9 mph - N/A   Clear
10:35 PM 59.0 °F 51.8 °F 77% 29.75 in 10.0 mi SSE 5.8 mph - N/A   Clear
10:55 PM 58.1 °F 51.6 °F 79% 29.76 in 10.0 mi South 9.2 mph - N/A   Clear
11:15 PM 57.7 °F 51.8 °F 81% 29.76 in 10.0 mi South 9.2 mph - N/A   Clear
11:35 PM 58.1 °F 51.8 °F 80% 29.77 in 10.0 mi South 8.1 mph - N/A   Clear
11:55 PM 57.7 °F 51.4 °F 79% 29.77 in 10.0 mi South 6.9 mph - N/A   Clear